2024-194B

Last updated on Thu Oct 31 2024 00:02:05 GMT+0000 (Coordinated Universal Time)

1 61684U 24194B 24304.16570017 -.00002234 70709-5 00000+0 0 9994 2 61684 41.3050 339.9579 0264171 116.1457 292.8724 15.65002779 52
UTC large
Height (km)
Speed (km/s)
/
Latitude / Longitude
Inclination (degrees)
Orbital Period (minutes)
Azimuth
Elevation
Range (km)
Doppler Factor

Next 0 passes for location: London (51.5072 / 0.1276)

Sorry there are no passes over London.